Arequipa, Peru

4:13 AM -05 on May 24, 2018 (GMT -0500)
Rodriguez Ballon

Weather History for SPQU - October, 2012

Change the Weather History Date:

Thursday, October 4, 2012

  Actual Average Record
Temperature  
Mean Temperature 60 °F -  
Max Temperature 71 °F 73 °F 77 °F (2001)
Min Temperature 50 °F 44 °F 38 °F (2017)
Degree Days  
Heating Degree Days 4    
Growing Degree Days 10 (Base 50)    
Moisture  
Dew Point 23 °F    
Average Humidity 23    
Maximum Humidity 36    
Minimum Humidity 9    
Precipitation  
Precipitation 0.00 in 0.00 in - ()
Sea Level Pressure  
Sea Level Pressure 30.33 in    
Wind  
Wind Speed 6 mph ()    
Max Wind Speed 14 mph    
Max Gust Speed -    
Visibility 6.0 miles    
Events      
Averages and records for this station are not official NWS values.
T = Trace of Precipitation, MM = Missing Value Source: Averaged Metar Reports

Daily Weather History Graph

Daily Weather History Graph

Search for Another Location

Airport or City:

Astronomy

Oct. 04, 2012 Rise Set
Actual Time 5:25 AM -05 5:43 PM -05
Civil Twilight 5:04 AM -05 6:05 PM -05
Nautical Twilight 4:39 AM -05 6:30 PM -05
Astronomical Twilight 4:13 AM -05 6:56 PM -05
Moon 9:37 PM -05 (10/4) 8:21 AM -05 (10/4)
Length of Visible Light 13h 01m
Length of Day
12h 17m
Waning Gibbous, 82% of the Moon is Illuminated
Oct 4
Waning Gibbous
Oct 8
Last Quarter
Oct 15
New
Oct 21
First Quarter
Oct 29
Full

Hourly Weather History & Observations

Time (-05) Temp. Dew Point Humidity Pressure Visibility Wind Dir Wind Speed Gust Speed Precip Events Conditions
12:00 AM 51.8 °F 24.8 °F 35% 30.36 in - NNE 5.8 mph - N/A   Clear
1:00 AM 50 °F 24 °F 23%  in 6 mi NE 8.1 mph - -  
1:00 AM 50.0 °F 23.0 °F 35% 30.33 in - NE 8.1 mph - N/A   Clear
2:00 AM 50.0 °F 21.2 °F 32% 30.33 in - NE 4.6 mph - N/A   Clear
3:00 AM 51.8 °F 24.8 °F 35% 30.33 in - NE 5.8 mph - N/A   Clear
4:00 AM 53.6 °F 17.6 °F 24% 30.33 in - ENE 4.6 mph - N/A   Clear
5:00 AM 51.8 °F 21.2 °F 30% 30.33 in - NE 9.2 mph - N/A   Clear
6:00 AM 53.6 °F 17.6 °F 24% 30.33 in - NNE 6.9 mph - N/A   Clear
7:00 AM 62 °F 20 °F 10%  in 6 mi ESE 3.5 mph - -  
7:00 AM 62.6 °F 21.2 °F 20% 30.36 in - Variable 3.5 mph - N/A   Clear
8:00 AM 64.4 °F 23.0 °F 21% 30.36 in - Variable 3.5 mph - N/A   Clear
9:00 AM 66.2 °F 24.8 °F 21% 30.36 in - Variable 5.8 mph - N/A   Clear
10:00 AM 67 °F 24 °F 10%  in 6 mi South 6.9 mph - -  
10:00 AM 68.0 °F 24.8 °F 20% 30.36 in - South 6.9 mph - N/A   Clear
11:00 AM 69.8 °F 19.4 °F 15% 30.33 in - SSW 8.1 mph - N/A   Clear
12:00 PM 69.8 °F 23.0 °F 17% 30.33 in - West 11.5 mph - N/A   Clear
1:00 PM 71 °F 25 °F 9%  in 6 mi West 10.4 mph - -  
1:00 PM 69.8 °F 24.8 °F 18% 30.30 in - West 10.4 mph - N/A   Clear
2:00 PM 71.6 °F 24.8 °F 17% 30.30 in - WSW 11.5 mph - N/A   Clear
3:00 PM 68.0 °F 26.6 °F 21% 30.30 in - WSW 13.8 mph - N/A   Clear
4:00 PM 67 °F 24 °F 10%  in 6 mi WSW 11.5 mph - -  
4:00 PM 68.0 °F 24.8 °F 20% 30.30 in - WSW 11.5 mph - N/A   Clear
5:00 PM 64.4 °F 24.8 °F 22% 30.30 in - West 12.7 mph - N/A   Clear
6:00 PM 59.0 °F 28.4 °F 31% 30.33 in - West 9.2 mph - N/A   Clear
7:00 PM 57 °F 29 °F 23%  in 6 mi NW 4.6 mph - -  
7:00 PM 57.2 °F 30.2 °F 36% 30.33 in - NW 4.6 mph - N/A   Clear
8:00 PM 55.4 °F 28.4 °F 36% 30.36 in - Calm Calm - N/A   Clear
9:00 PM 53.6 °F 17.6 °F 24% 30.36 in - Calm Calm - N/A   Clear
10:00 PM 50.0 °F 19.4 °F 30% 30.36 in - North 4.6 mph - N/A   Clear
11:00 PM 51.8 °F 21.2 °F 30% 30.33 in - NNW 4.6 mph - N/A   Clear